Starlink 5577

operational
NORAD ID: 55751 Int'l Des: 2023-028 Owner: SPXS Country: US Constellation: starlink
LEOCIRCULAR

Über Starlink 5577

Beschreibung wird geladen...

Live-Position

3D-Globus wird geladen...

Nächste Überflüge

Höhenverlauf

Altitude vs Time

uPlot chart will show altitude changes over time

Zweizeiliger Elementsatz

1 55751U 23028L 25308.01896765 -.00000307 00000-0 -17967-4 0 9994
2 55751 69.9995 201.4065 0002693 270.9174 89.1677 14.98330639147219
Epoch: 4. Nov. 2025 • Age: 10 hours

Aktueller Status

Höhe 585.1 km
Geschwindigkeit 7.57 km/s
Subsatellitenpunkt 68.31°N, 113.27°E
Startdatum 3. März 2023
Alter 2.6 years
Typ internet

Technische Details

Klassifizierung Payload
Masse 305.00 kg
Trockenmasse 290.00 kg
Gesamtmasse 305.00 kg
Länge 0.20 m
Durchmesser 2.80 m
Spannweite 9.00 m
Form Box + pan
Hersteller SPXS
Bus-Typ Starlink
Phasenstatus In Orbit
Besitzer/Staat SPXS/US

Große Konstellationen

Loading constellations...